| time (UTC) | temp F | wind direction | speed knots | gust knots | rain 1hr in | rain 24hr in | rain mn in | humidity % | barometer mb |
| 20260905111249 | 56 | 282 | 0.0 | 1.7 | 0.00 | 0.03 | 0.00 | 98 | 1015.7 |
| 20260905110748 | 56 | 282 | 0.0 | 1.7 | 0.00 | 0.03 | 0.00 | 98 | 1015.7 |
| 20260905110515 | 56 | 282 | 0.0 | 1.7 | 0.00 | 0.03 | 0.00 | 98 | 1015.7 |
| 20260905105747 | 56 | 282 | 0.9 | 1.7 | 0.00 | 0.03 | 0.00 | 98 | 1015.6 |
| 20260905105248 | 56 | 285 | 0.9 | 1.7 | 0.00 | 0.03 | 0.00 | 98 | 1015.6 |
| 20260905104747 | 56 | 286 | 0.9 | 1.7 | 0.00 | 0.03 | 0.00 | 98 | 1015.5 |
| 20260905104247 | 57 | 272 | 0.0 | 1.7 | 0.00 | 0.03 | 0.00 | 98 | 1015.4 |
| 20260905103748 | 57 | 274 | 0.9 | 1.7 | 0.00 | 0.03 | 0.00 | 98 | 1015.5 |
| 20260905103246 | 57 | 274 | 0.0 | 0.9 | 0.00 | 0.03 | 0.00 | 98 | 1015.4 |
| 20260905102746 | 57 | 274 | 0.0 | 1.7 | 0.00 | 0.03 | 0.00 | 98 | 1015.4 |
| 20260905102246 | 57 | 275 | 0.9 | 1.7 | 0.00 | 0.03 | 0.00 | 98 | 1015.4 |
| 20260905101747 | 57 | 274 | 0.9 | 1.7 | 0.00 | 0.03 | 0.00 | 98 | 1015.3 |
| 20260905101245 | 57 | 272 | 0.9 | 1.7 | 0.00 | 0.03 | 0.00 | 98 | 1015.4 |
| 20260905100746 | 57 | 271 | 0.0 | 0.9 | 0.00 | 0.03 | 0.00 | 98 | 1015.4 |
| 20260905100243 | 58 | 271 | 0.0 | 1.7 | 0.00 | 0.03 | 0.00 | 98 | 1015.5 |
| 20260905095739 | 58 | 271 | 0.0 | 1.7 | 0.00 | 0.03 | 0.00 | 98 | 1015.4 |
| 20260905095239 | 58 | 272 | 0.9 | 1.7 | 0.00 | 0.03 | 0.00 | 98 | 1015.3 |
| 20260905094742 | 58 | 272 | 0.9 | 1.7 | 0.00 | 0.03 | 0.00 | 98 | 1015.3 |
| 20260905094239 | 58 | 271 | 0.9 | 2.6 | 0.00 | 0.03 | 0.00 | 98 | 1015.2 |
| 20260905093740 | 58 | 274 | 1.7 | 2.6 | 0.00 | 0.03 | 0.00 | 98 | 1015.2 |
| 20260905093238 | 58 | 282 | 1.7 | 2.6 | 0.00 | 0.03 | 0.00 | 98 | 1015.1 |
| 20260905092738 | 58 | 276 | 0.9 | 2.6 | 0.00 | 0.03 | 0.00 | 98 | 1015.2 |
| 20260905092236 | 58 | 283 | 1.7 | 2.6 | 0.00 | 0.03 | 0.00 | 98 | 1015.1 |
| 20260905091735 | 58 | 269 | 1.7 | 2.6 | 0.00 | 0.03 | 0.00 | 98 | 1015.2 |
| 20260905091234 | 58 | 278 | 0.9 | 1.7 | 0.00 | 0.03 | 0.00 | 98 | 1015.2 |
| 20260905091000 | 58 | 278 | 0.9 | 2.6 | 0.00 | 0.03 | 0.00 | 98 | 1014.9 |
| 20260905090234 | 58 | 278 | 0.9 | 2.6 | 0.00 | 0.03 | 0.00 | 98 | 1014.9 |
| 20260905090006 | 58 | 279 | 0.9 | 1.7 | 0.00 | 0.03 | 0.00 | 98 | 1015.1 |
| 20260905085233 | 58 | 268 | 0.9 | 1.7 | 0.00 | 0.03 | 0.00 | 98 | 1015.1 |
| 20260905084736 | 58 | 282 | 0.0 | 1.7 | 0.00 | 0.03 | 0.00 | 98 | 1014.9 |
| 20260905084233 | 58 | 282 | 0.9 | 1.7 | 0.00 | 0.03 | 0.00 | 98 | 1015.1 |
| 20260905083732 | 58 | 282 | 0.9 | 1.7 | 0.00 | 0.03 | 0.00 | 98 | 1015.1 |
| 20260905083233 | 58 | 282 | 0.9 | 1.7 | 0.00 | 0.03 | 0.00 | 97 | 1015.1 |
| 20260905082732 | 58 | 282 | 0.0 | 1.7 | 0.00 | 0.03 | 0.00 | 97 | 1015.1 |
| 20260905082233 | 58 | 282 | 0.9 | 1.7 | 0.00 | 0.03 | 0.00 | 97 | 1014.9 |
| 20260905082004 | 58 | 282 | 0.9 | 1.7 | 0.00 | 0.03 | 0.00 | 97 | 1014.9 |
| 20260905081232 | 58 | 282 | 0.9 | 1.7 | 0.00 | 0.03 | 0.00 | 97 | 1014.9 |
| 20260905080733 | 58 | 282 | 0.0 | 0.0 | 0.00 | 0.03 | 0.00 | 98 | 1014.9 |
| 20260905080236 | 58 | 282 | 0.0 | 0.0 | 0.00 | 0.03 | 0.00 | 97 | 1014.9 |
| 20260905075732 | 58 | 282 | 0.0 | 0.9 | 0.00 | 0.03 | 0.00 | 97 | 1014.9 |
| 20260905075233 | 58 | 282 | 0.0 | 1.7 | 0.00 | 0.03 | 0.00 | 97 | 1014.8 |
| 20260905074732 | 59 | 282 | 0.9 | 1.7 | 0.00 | 0.03 | 0.00 | 97 | 1014.8 |
| 20260905074234 | 59 | 279 | 0.9 | 1.7 | 0.00 | 0.03 | 0.00 | 97 | 1014.8 |
| 20260905074007 | 59 | 279 | 0.0 | 1.7 | 0.00 | 0.03 | 0.00 | 98 | 1014.8 |
| 20260905073233 | 59 | 279 | 1.7 | 1.7 | 0.00 | 0.03 | 0.00 | 97 | 1014.8 |
| 20260905072732 | 59 | 281 | 1.7 | 1.7 | 0.00 | 0.03 | 0.00 | 97 | 1014.8 |
| 20260905072233 | 59 | 251 | 0.9 | 1.7 | 0.00 | 0.03 | 0.00 | 97 | 1014.8 |
| 20260905071732 | 59 | 251 | 0.9 | 1.7 | 0.00 | 0.03 | 0.00 | 97 | 1014.8 |
| 20260905071459 | 59 | 251 | 0.9 | 1.7 | 0.00 | 0.03 | 0.00 | 97 | 1014.7 |
| 20260905070731 | 59 | 251 | 0.0 | 0.9 | 0.00 | 0.03 | 0.00 | 97 | 1014.7 |
| 20260905070233 | 59 | 251 | 0.0 | 1.7 | 0.00 | 0.03 | 0.00 | 97 | 1014.6 |
| 20260905065731 | 60 | 251 | 0.9 | 1.7 | 0.00 | 0.03 | 0.00 | 97 | 1014.7 |
| 20260905065231 | 60 | 251 | 0.9 | 1.7 | 0.00 | 0.03 | 0.00 | 97 | 1014.7 |
| 20260905064732 | 60 | 251 | 0.9 | 1.7 | 0.00 | 0.03 | 0.00 | 97 | 1014.7 |
| 20260905064233 | 60 | 274 | 0.0 | 0.9 | 0.00 | 0.03 | 0.00 | 97 | 1014.6 |
| 20260905063731 | 60 | 276 | 0.9 | 0.9 | 0.00 | 0.03 | 0.00 | 97 | 1014.6 |
| 20260905063231 | 60 | 276 | 0.9 | 1.7 | 0.00 | 0.03 | 0.00 | 97 | 1014.7 |
| 20260905062730 | 60 | 276 | 0.9 | 1.7 | 0.00 | 0.03 | 0.00 | 97 | 1014.7 |
| 20260905062231 | 61 | 276 | 0.0 | 0.9 | 0.00 | 0.03 | 0.00 | 97 | 1014.6 |
| 20260905061730 | 61 | 276 | 0.0 | 1.7 | 0.00 | 0.03 | 0.00 | 97 | 1014.7 |
| 20260905061230 | 61 | 276 | 0.9 | 1.7 | 0.00 | 0.03 | 0.00 | 97 | 1014.7 |
| 20260905060730 | 61 | 275 | 0.9 | 1.7 | 0.00 | 0.03 | 0.00 | 97 | 1014.7 |
| 20260905060232 | 61 | 269 | 0.9 | 1.7 | 0.00 | 0.03 | 0.00 | 97 | 1014.8 |
| 20260905055729 | 61 | 269 | 0.9 | 1.7 | 0.00 | 0.03 | 0.00 | 97 | 1014.8 |
| 20260905054729 | 61 | 89 | 0.9 | 1.7 | 0.00 | 0.03 | 0.00 | 97 | 1014.8 |
| 20260905054229 | 62 | 90 | 0.9 | 1.7 | 0.00 | 0.03 | 0.00 | 97 | 1014.8 |
| 20260905053725 | 62 | 85 | 0.9 | 1.7 | 0.00 | 0.03 | 0.00 | 97 | 1014.8 |
| 20260905053223 | 62 | 85 | 0.9 | 1.7 | 0.00 | 0.03 | 0.00 | 97 | 1014.8 |
| 20260905052723 | 62 | 87 | 0.0 | 0.0 | 0.00 | 0.03 | 0.00 | 97 | 1014.8 |
| 20260905052224 | 62 | 86 | 0.0 | 1.7 | 0.00 | 0.03 | 0.00 | 97 | 1014.9 |
| 20260905051719 | 63 | 85 | 0.9 | 1.7 | 0.00 | 0.03 | 0.00 | 97 | 1014.8 |
| 20260905051220 | 63 | 86 | 0.0 | 0.0 | 0.00 | 0.03 | 0.00 | 97 | 1014.8 |
| 20260905050719 | 63 | 89 | 0.0 | 0.0 | 0.00 | 0.03 | 0.00 | 97 | 1014.7 |
| 20260905050222 | 63 | 89 | 0.0 | 0.0 | 0.00 | 0.03 | 0.00 | 97 | 1014.8 |
| 20260905045720 | 63 | 89 | 0.0 | 0.0 | 0.00 | 0.03 | 0.00 | 97 | 1014.9 |
| 20260905045216 | 63 | 89 | 0.0 | 0.0 | 0.00 | 0.03 | 0.00 | 97 | 1014.9 |
| 20260905044714 | 64 | 89 | 0.0 | 0.0 | 0.00 | 0.03 | 0.00 | 97 | 1014.8 |
| 20260905044214 | 64 | 89 | 0.0 | 0.0 | 0.00 | 0.03 | 0.00 | 97 | 1014.8 |
| 20260905043714 | 64 | 89 | 0.0 | 0.0 | 0.00 | 0.03 | 0.00 | 97 | 1014.8 |
| 20260905043215 | 64 | 89 | 0.0 | 0.9 | 0.00 | 0.03 | 0.00 | 97 | 1014.8 |
| 20260905042713 | 64 | 89 | 0.0 | 0.9 | 0.00 | 0.03 | 0.00 | 97 | 1014.8 |
| 20260905042446 | 64 | 89 | 0.0 | 0.9 | 0.00 | 0.03 | 0.00 | 97 | 1014.7 |
| 20260905041712 | 64 | 89 | 0.0 | 1.7 | 0.00 | 0.03 | 0.00 | 97 | 1014.8 |
| 20260905041214 | 64 | 89 | 0.0 | 1.7 | 0.00 | 0.03 | 0.00 | 97 | 1014.9 |
| 20260905040711 | 64 | 87 | 0.0 | 1.7 | 0.00 | 0.03 | 0.00 | 97 | 1014.9 |
| 20260905040213 | 64 | 90 | 0.9 | 1.7 | 0.00 | 0.03 | 0.00 | 97 | 1014.9 |
| 20260905035707 | 64 | 89 | 0.0 | 1.7 | 0.00 | 0.03 | 0.03 | 97 | 1014.9 |
| 20260905035439 | 64 | 138 | 0.0 | 0.0 | 0.00 | 0.03 | 0.03 | 97 | 1014.9 |
| 20260905034706 | 64 | 138 | 0.0 | 0.0 | 0.00 | 0.03 | 0.03 | 97 | 1014.9 |
| 20260905034206 | 64 | 138 | 0.0 | 0.0 | 0.00 | 0.03 | 0.03 | 97 | 1015.1 |
| 20260905033707 | 64 | 138 | 0.0 | 0.0 | 0.00 | 0.03 | 0.03 | 96 | 1015.2 |
| 20260905033206 | 63 | 138 | 0.0 | 0.0 | 0.00 | 0.03 | 0.03 | 96 | 1015.2 |
| 20260905032706 | 64 | 140 | 0.0 | 0.0 | 0.00 | 0.03 | 0.03 | 96 | 1015.1 |
| 20260905031705 | 64 | 142 | 0.0 | 0.0 | 0.00 | 0.03 | 0.03 | 96 | 1015.3 |
| 20260905031205 | 64 | 142 | 0.0 | 0.0 | 0.00 | 0.03 | 0.03 | 96 | 1015.2 |
| 20260905030704 | 64 | 142 | 0.0 | 0.0 | 0.00 | 0.03 | 0.03 | 96 | 1015.2 |
| 20260905030205 | 64 | 142 | 0.0 | 0.0 | 0.00 | 0.03 | 0.03 | 96 | 1015.3 |
| 20260905025707 | 64 | 142 | 0.0 | 0.0 | 0.00 | 0.03 | 0.03 | 96 | 1015.3 |
| 20260905025206 | 65 | 142 | 0.0 | 0.0 | 0.00 | 0.03 | 0.03 | 96 | 1015.2 |
| 20260905024705 | 65 | 142 | 0.0 | 0.0 | 0.00 | 0.03 | 0.03 | 96 | 1015.4 |
| 20260905024206 | 65 | 144 | 0.0 | 0.0 | 0.00 | 0.03 | 0.03 | 96 | 1015.3 |
| 20260905023705 | 65 | 144 | 0.0 | 0.9 | 0.00 | 0.03 | 0.03 | 96 | 1015.2 |
| 20260905023207 | 65 | 144 | 0.0 | 1.7 | 0.00 | 0.03 | 0.03 | 96 | 1015.2 |
| 20260905022934 | 65 | 141 | 0.0 | 1.7 | 0.00 | 0.03 | 0.03 | 96 | 1015.1 |
| 20260905022205 | 65 | 137 | 0.0 | 1.7 | 0.00 | 0.03 | 0.03 | 96 | 1015.2 |
| 20260905021935 | 65 | 140 | 0.0 | 2.6 | 0.00 | 0.03 | 0.03 | 96 | 1015.2 |
| 20260905021205 | 66 | 145 | 0.9 | 2.6 | 0.00 | 0.03 | 0.03 | 96 | 1015.1 |
| 20260905020204 | 66 | 100 | 1.7 | 3.5 | 0.00 | 0.03 | 0.03 | 95 | 1015.3 |
| 20260905015706 | 66 | 100 | 0.0 | 2.6 | 0.00 | 0.03 | 0.03 | 95 | 1015.2 |
| 20260905015207 | 66 | 62 | 1.7 | 3.5 | 0.00 | 0.03 | 0.03 | 95 | 1015.1 |
| 20260905014706 | 66 | 96 | 0.0 | 3.5 | 0.00 | 0.03 | 0.03 | 95 | 1015.1 |
| 20260905014204 | 66 | 75 | 1.7 | 3.5 | 0.00 | 0.03 | 0.03 | 95 | 1015.2 |
| 20260905013702 | 66 | 100 | 0.9 | 3.5 | 0.00 | 0.03 | 0.03 | 95 | 1015.2 |
| 20260905013204 | 66 | 62 | 1.7 | 3.5 | 0.00 | 0.03 | 0.03 | 95 | 1015.2 |
| 20260905012704 | 66 | 69 | 1.7 | 2.6 | 0.00 | 0.03 | 0.03 | 95 | 1015.2 |
| 20260905012203 | 66 | 83 | 0.0 | 1.7 | 0.00 | 0.03 | 0.03 | 95 | 1015.1 |
| 20260905011929 | 66 | 106 | 0.9 | 1.7 | 0.00 | 0.03 | 0.03 | 95 | 1015.1 |
| 20260905011434 | 66 | 71 | 0.9 | 1.7 | 0.00 | 0.03 | 0.03 | 94 | 1015.1 |
| 20260905010703 | 66 | 76 | 1.7 | 2.6 | 0.00 | 0.03 | 0.03 | 94 | 1014.9 |
| 20260905010206 | 66 | 72 | 0.0 | 2.6 | 0.00 | 0.03 | 0.03 | 94 | 1014.8 |
| 20260905005658 | 66 | 65 | 0.0 | 2.6 | 0.00 | 0.03 | 0.03 | 94 | 1014.8 |
| 20260905005200 | 66 | 62 | 0.9 | 2.6 | 0.00 | 0.03 | 0.03 | 93 | 1014.7 |
| 20260905004654 | 66 | 97 | 0.0 | 0.0 | 0.00 | 0.03 | 0.03 | 93 | 1014.7 |
| 20260905004156 | 67 | 97 | 0.0 | 0.0 | 0.00 | 0.03 | 0.03 | 93 | 1014.6 |
| 20260905003153 | 67 | 97 | 0.0 | 0.0 | 0.00 | 0.03 | 0.03 | 93 | 1014.6 |
| 20260905002653 | 67 | 97 | 0.0 | 0.0 | 0.00 | 0.03 | 0.03 | 93 | 1014.5 |
| 20260905002152 | 67 | 100 | 0.0 | 0.0 | 0.00 | 0.03 | 0.03 | 92 | 1014.4 |
| 20260905001651 | 67 | 99 | 0.0 | 0.9 | 0.00 | 0.03 | 0.03 | 92 | 1014.5 |
| 20260905001152 | 67 | 99 | 0.0 | 1.7 | 0.00 | 0.03 | 0.03 | 92 | 1014.4 |
| 20260905000650 | 67 | 82 | 0.0 | 1.7 | 0.00 | 0.03 | 0.03 | 92 | 1014.4 |
| 20260905000153 | 68 | 78 | 0.0 | 1.7 | 0.00 | 0.03 | 0.03 | 92 | 1014.4 |
| 20260904235647 | 68 | 65 | 0.9 | 1.7 | 0.00 | 0.03 | 0.03 | 92 | 1014.4 |
| 20260904235147 | 68 | 80 | 0.9 | 1.7 | 0.00 | 0.03 | 0.03 | 91 | 1014.3 |
| 20260904234646 | 68 | 76 | 0.9 | 1.7 | 0.00 | 0.03 | 0.03 | 91 | 1014.3 |
| 20260904234146 | 68 | 89 | 0.9 | 1.7 | 0.00 | 0.03 | 0.03 | 91 | 1014.3 |
| 20260904233645 | 68 | 89 | 0.0 | 1.7 | 0.00 | 0.03 | 0.03 | 91 | 1014.4 |
| 20260904233146 | 68 | 90 | 0.0 | 1.7 | 0.00 | 0.03 | 0.03 | 91 | 1014.3 |
| 20260904232645 | 68 | 90 | 0.0 | 1.7 | 0.00 | 0.03 | 0.03 | 91 | 1014.3 |
| 20260904232146 | 68 | 87 | 0.9 | 1.7 | 0.00 | 0.03 | 0.03 | 91 | 1014.1 |
| 20260904231646 | 68 | 69 | 0.9 | 1.7 | 0.00 | 0.03 | 0.03 | 92 | 1014.2 |
| 20260904231146 | 68 | 75 | 0.0 | 0.9 | 0.00 | 0.03 | 0.03 | 92 | 1014.2 |
| 20260904230642 | 68 | 134 | 0.0 | 2.6 | 0.00 | 0.03 | 0.03 | 92 | 1014.2 |
| 20260904230146 | 68 | 117 | 0.9 | 3.5 | 0.00 | 0.03 | 0.03 | 92 | 1014.0 |
| 20260904225642 | 68 | 114 | 0.9 | 3.5 | 0.00 | 0.03 | 0.03 | 92 | 1014.0 |
| 20260904225141 | 68 | 90 | 1.7 | 3.5 | 0.00 | 0.03 | 0.03 | 92 | 1014.0 |
| 20260904224905 | 68 | 79 | 2.6 | 3.5 | 0.00 | 0.03 | 0.03 | 92 | 1014.0 |
| 20260904224139 | 68 | 66 | 1.7 | 3.5 | 0.00 | 0.03 | 0.03 | 92 | 1014.1 |
| 20260904223639 | 68 | 117 | 1.7 | 3.5 | 0.00 | 0.03 | 0.03 | 92 | 1014.0 |
| 20260904223140 | 68 | 68 | 1.7 | 4.3 | 0.00 | 0.03 | 0.03 | 92 | 1014.0 |
| 20260904222638 | 68 | 68 | 2.6 | 4.3 | 0.00 | 0.03 | 0.03 | 92 | 1013.9 |
| 20260904222139 | 68 | 76 | 1.7 | 3.5 | 0.00 | 0.03 | 0.03 | 92 | 1013.9 |
| 20260904221905 | 68 | 83 | 1.7 | 3.5 | 0.00 | 0.03 | 0.03 | 92 | 1013.9 |
| 20260904221142 | 68 | 82 | 1.7 | 3.5 | 0.00 | 0.03 | 0.03 | 92 | 1014.0 |
| 20260904220636 | 68 | 113 | 1.7 | 4.3 | 0.00 | 0.03 | 0.03 | 92 | 1014.0 |
| 20260904220143 | 68 | 102 | 2.6 | 4.3 | 0.00 | 0.03 | 0.03 | 91 | 1014.1 |
| 20260904215558 | 68 | 103 | 1.7 | 4.3 | 0.00 | 0.03 | 0.03 | 91 | 1014.0 |
| 20260904215058 | 69 | 51 | 2.6 | 4.3 | 0.00 | 0.03 | 0.03 | 91 | 1014.0 |
| 20260904214559 | 69 | 80 | 1.7 | 3.5 | 0.00 | 0.03 | 0.03 | 90 | 1014.0 |
| 20260904214057 | 69 | 51 | 1.7 | 3.5 | 0.00 | 0.03 | 0.03 | 89 | 1014.0 |
| 20260904213558 | 69 | 97 | 1.7 | 5.2 | 0.00 | 0.03 | 0.03 | 89 | 1014.1 |
| 20260904213057 | 69 | 89 | 1.7 | 5.2 | 0.00 | 0.03 | 0.03 | 88 | 1013.9 |
| 20260904212556 | 69 | 95 | 2.6 | 4.3 | 0.00 | 0.03 | 0.03 | 86 | 1013.9 |
| 20260904212055 | 69 | 90 | 1.7 | 4.3 | 0.00 | 0.03 | 0.03 | 84 | 1013.9 |
| 20260904211556 | 70 | 89 | 2.6 | 4.3 | 0.00 | 0.03 | 0.03 | 82 | 1014.0 |
| 20260904211057 | 70 | 61 | 1.7 | 3.5 | 0.00 | 0.03 | 0.03 | 82 | 1014.0 |
| 20260904210556 | 70 | 78 | 1.7 | 0.0 | 0.00 | 0.03 | 0.03 | 82 | 1014.0 |
| 20260904205702 | 70 | 90 | 1.7 | 4.3 | 0.00 | 0.03 | 0.03 | 82 | 1013.9 |
| 20260904205202 | 70 | 111 | 1.7 | 4.3 | 0.00 | 0.03 | 0.03 | 81 | 1013.9 |
| 20260904204934 | 70 | 95 | 1.7 | 4.3 | 0.00 | 0.03 | 0.03 | 81 | 1013.9 |
| 20260904204203 | 70 | 138 | 0.9 | 4.3 | 0.00 | 0.03 | 0.03 | 83 | 1013.9 |
| 20260904203702 | 70 | 145 | 2.6 | 4.3 | 0.00 | 0.03 | 0.03 | 83 | 1014.0 |
| 20260904203202 | 70 | 104 | 2.6 | 5.2 | 0.00 | 0.03 | 0.03 | 83 | 1014.1 |
| 20260904202704 | 69 | 92 | 3.5 | 5.2 | 0.00 | 0.03 | 0.03 | 83 | 1014.0 |
| 20260904202202 | 69 | 89 | 1.7 | 5.2 | 0.00 | 0.03 | 0.03 | 83 | 1014.2 |
| 20260904201935 | 69 | 92 | 1.7 | 5.2 | 0.00 | 0.03 | 0.03 | 83 | 1014.1 |
| 20260904201600 | 70 | 179 | 2.6 | 5.2 | 0.00 | 0.03 | 0.03 | 85 | 1014.2 |
| 20260904200741 | 69 | 71 | 2.6 | 5.2 | 0.00 | 0.03 | 0.03 | 85 | 1014.1 |
| 20260904200228 | 69 | 90 | 2.6 | 5.2 | 0.00 | 0.03 | 0.03 | 85 | 1014.2 |
| 20260904195659 | 69 | 95 | 2.6 | 7.8 | 0.00 | 0.03 | 0.03 | 86 | 1014.1 |
| 20260904195525 | 69 | 110 | 1.7 | 9.6 | 0.00 | 0.03 | 0.03 | 90 | 1014.0 |
| 20260904195417 | 69 | 107 | 0.9 | 8.7 | 0.00 | 0.03 | 0.03 | 89 | 1014.1 |
| 20260904194158 | 68 | 110 | 3.5 | 10.4 | 0.00 | 0.03 | 0.03 | 91 | 1014.0 |
| 20260904193659 | 68 | 111 | 4.3 | 10.4 | 0.00 | 0.03 | 0.03 | 91 | 1014.0 |
| 20260904193157 | 68 | 89 | 5.2 | 10.4 | 0.00 | 0.03 | 0.03 | 92 | 1014.0 |
| 20260904192657 | 68 | 90 | 6.1 | 9.6 | 0.00 | 0.03 | 0.03 | 92 | 1014.0 |
| 20260904192155 | 68 | 102 | 5.2 | 9.6 | 0.00 | 0.03 | 0.03 | 92 | 1014.1 |
| 20260904191655 | 68 | 111 | 3.5 | 9.6 | 0.00 | 0.03 | 0.03 | 92 | 1014.2 |
| 20260904191156 | 68 | 103 | 4.3 | 9.6 | 0.00 | 0.03 | 0.03 | 92 | 1014.2 |
| 20260904190655 | 68 | 103 | 3.5 | 9.6 | 0.00 | 0.03 | 0.03 | 92 | 1014.2 |
| 20260904185635 | 68 | 103 | 4.3 | 8.7 | 0.00 | 0.03 | 0.03 | 92 | 1014.2 |
| 20260904185135 | 68 | 87 | 3.5 | 8.7 | 0.00 | 0.03 | 0.03 | 91 | 1014.2 |
| 20260904184636 | 68 | 118 | 3.5 | 8.7 | 0.00 | 0.03 | 0.03 | 91 | 1014.3 |
| 20260904184134 | 68 | 99 | 3.5 | 7.8 | 0.00 | 0.03 | 0.03 | 90 | 1014.3 |
| 20260904183637 | 68 | 113 | 4.3 | 7.8 | 0.00 | 0.03 | 0.03 | 90 | 1014.3 |
| 20260904183407 | 68 | 87 | 4.3 | 7.8 | 0.00 | 0.03 | 0.03 | 90 | 1014.3 |
| 20260904182635 | 68 | 92 | 2.6 | 5.2 | 0.00 | 0.03 | 0.03 | 90 | 1014.5 |
| 20260904182134 | 68 | 126 | 3.5 | 6.1 | 0.00 | 0.03 | 0.03 | 90 | 1014.5 |
| 20260904181634 | 67 | 95 | 1.7 | 6.1 | 0.00 | 0.03 | 0.03 | 90 | 1014.6 |
| 20260904181132 | 68 | 82 | 2.6 | 6.1 | 0.00 | 0.03 | 0.03 | 90 | 1014.7 |
| 20260904180906 | 68 | 145 | 2.6 | 6.1 | 0.00 | 0.03 | 0.03 | 90 | 1014.4 |
| 20260904175504 | 68 | 68 | 2.6 | 5.2 | 0.00 | 0.03 | 0.03 | 89 | 1014.5 |
| 20260904175007 | 68 | 99 | 2.6 | 6.1 | 0.00 | 0.03 | 0.03 | 89 | 1014.6 |
| 20260904174503 | 68 | 89 | 4.3 | 6.1 | 0.00 | 0.03 | 0.03 | 88 | 1014.6 |
| 20260904174005 | 69 | 110 | 2.6 | 6.1 | 0.00 | 0.03 | 0.03 | 88 | 1014.5 |
| 20260904173004 | 70 | 97 | 3.5 | 6.1 | 0.00 | 0.03 | 0.03 | 87 | 1014.4 |
| 20260904172502 | 70 | 121 | 2.6 | 8.7 | 0.00 | 0.03 | 0.03 | 88 | 1014.2 |
| 20260904172006 | 69 | 93 | 2.6 | 8.7 | 0.00 | 0.03 | 0.03 | 89 | 1014.1 |
| 20260904171503 | 68 | 85 | 4.3 | 8.7 | 0.00 | 0.03 | 0.03 | 89 | 1014.0 |
| 20260904171003 | 68 | 113 | 3.5 | 8.7 | 0.00 | 0.03 | 0.03 | 92 | 1014.1 |
| 20260904170502 | 67 | 69 | 4.3 | 8.7 | 0.00 | 0.03 | 0.03 | 92 | 1014.2 |
| 20260904170003 | 67 | 123 | 3.5 | 7.8 | 0.00 | 0.03 | 0.03 | 92 | 1014.3 |
| 20260904165503 | 67 | 103 | 3.5 | 7.8 | 0.00 | 0.03 | 0.03 | 92 | 1014.5 |
| 20260904165235 | 67 | 128 | 3.5 | 6.1 | 0.00 | 0.03 | 0.03 | 92 | 1014.5 |
| 20260904164507 | 67 | 86 | 2.6 | 5.2 | 0.00 | 0.03 | 0.03 | 92 | 1014.6 |
| 20260904164003 | 67 | 87 | 3.5 | 5.2 | 0.00 | 0.03 | 0.03 | 92 | 1014.7 |
| 20260904163504 | 67 | 63 | 1.7 | 5.2 | 0.00 | 0.03 | 0.03 | 92 | 1014.7 |
| 20260904163231 | 67 | 66 | 2.6 | 5.2 | 0.00 | 0.03 | 0.03 | 92 | 1014.7 |
| 20260904162502 | 67 | 61 | 2.6 | 4.3 | 0.00 | 0.03 | 0.03 | 93 | 1014.6 |
| 20260904162003 | 67 | 62 | 2.6 | 4.3 | 0.00 | 0.03 | 0.03 | 92 | 1014.7 |
| 20260904161503 | 67 | 90 | 2.6 | 4.3 | 0.00 | 0.03 | 0.03 | 92 | 1014.7 |
| 20260904161002 | 67 | 69 | 2.6 | 4.3 | 0.00 | 0.03 | 0.03 | 92 | 1014.8 |
| 20260904160502 | 67 | 79 | 2.6 | 4.3 | 0.00 | 0.03 | 0.03 | 92 | 1014.9 |
| 20260904160003 | 67 | 89 | 2.6 | 4.3 | 0.00 | 0.03 | 0.03 | 92 | 1014.8 |
| 20260904155502 | 67 | 66 | 2.6 | 4.3 | 0.00 | 0.03 | 0.03 | 92 | 1014.9 |
| 20260904155008 | 67 | 92 | 3.5 | 4.3 | 0.00 | 0.03 | 0.03 | 92 | 1015.1 |
| 20260904154502 | 67 | 72 | 3.5 | 6.1 | 0.00 | 0.03 | 0.03 | 92 | 1015.1 |
| 20260904154002 | 67 | 63 | 1.7 | 6.1 | 0.00 | 0.03 | 0.03 | 92 | 1015.1 |
| 20260904153501 | 67 | 48 | 3.5 | 6.1 | 0.00 | 0.03 | 0.03 | 90 | 1014.8 |
| 20260904153002 | 67 | 85 | 3.5 | 6.1 | 0.00 | 0.03 | 0.03 | 89 | 1015.2 |
| 20260904152733 | 68 | 65 | 1.7 | 3.5 | 0.00 | 0.03 | 0.03 | 89 | 1015.2 |
| 20260904152231 | 67 | 89 | 0.9 | 3.5 | 0.00 | 0.03 | 0.03 | 90 | 1015.1 |
| 20260904151502 | 67 | 148 | 0.9 | 3.5 | 0.00 | 0.03 | 0.03 | 90 | 1014.9 |
| 20260904151000 | 67 | 118 | 0.0 | 2.6 | 0.00 | 0.03 | 0.03 | 92 | 1014.9 |
| 20260904150729 | 67 | 166 | 0.9 | 1.7 | 0.00 | 0.03 | 0.03 | 92 | 1015.2 |
| 20260904150230 | 67 | 159 | 0.9 | 1.7 | 0.00 | 0.03 | 0.03 | 92 | 1015.2 |
| 20260904145500 | 67 | 257 | 0.0 | 1.7 | 0.00 | 0.03 | 0.03 | 93 | 1015.3 |
| 20260904145001 | 67 | 233 | 0.0 | 3.5 | 0.00 | 0.03 | 0.03 | 93 | 1015.2 |
| 20260904144500 | 66 | 259 | 0.9 | 3.5 | 0.00 | 0.03 | 0.03 | 94 | 1015.3 |
| 20260904144002 | 66 | 203 | 0.0 | 2.6 | 0.00 | 0.03 | 0.03 | 94 | 1015.3 |
| 20260904143601 | 66 | 204 | 1.7 | 3.5 | 0.00 | 0.03 | 0.03 | 95 | 1015.1 |
| 20260904143010 | 66 | 189 | 1.7 | 3.5 | 0.00 | 0.03 | 0.03 | 95 | 1015.1 |
| 20260904142502 | 66 | 224 | 1.7 | 3.5 | 0.00 | 0.03 | 0.03 | 96 | 1014.9 |
| 20260904141958 | 65 | 200 | 1.7 | 2.6 | 0.00 | 0.03 | 0.03 | 96 | 1014.9 |
| 20260904141515 | 65 | 204 | 0.9 | 1.7 | 0.00 | 0.03 | 0.03 | 96 | 1014.9 |
| 20260904140957 | 65 | 92 | 0.0 | 3.5 | 0.00 | 0.03 | 0.03 | 96 | 1014.8 |
| 20260904140458 | 65 | 164 | 0.9 | 3.5 | 0.00 | 0.03 | 0.03 | 96 | 1014.7 |
| 20260904135959 | 65 | 206 | 0.0 | 3.5 | 0.00 | 0.03 | 0.03 | 96 | 1014.5 |
| 20260904135454 | 65 | 186 | 0.9 | 3.5 | 0.00 | 0.03 | 0.03 | 97 | 1014.4 |
| 20260904135221 | 65 | 197 | 0.9 | 4.3 | 0.00 | 0.03 | 0.03 | 97 | 1014.6 |
| 20260904134455 | 64 | 154 | 2.6 | 4.3 | 0.00 | 0.03 | 0.03 | 97 | 1014.5 |
| 20260904134003 | 64 | 145 | 0.9 | 5.2 | 0.00 | 0.03 | 0.03 | 97 | 1014.2 |
| 20260904133455 | 64 | 151 | 1.7 | 5.2 | 0.00 | 0.03 | 0.03 | 97 | 1014.1 |
| 20260904133007 | 64 | 161 | 1.7 | 3.5 | 0.00 | 0.03 | 0.03 | 97 | 1014.1 |
| 20260904132454 | 64 | 157 | 1.7 | 3.5 | 0.00 | 0.03 | 0.03 | 97 | 1014.3 |
| 20260904131951 | 64 | 140 | 0.9 | 1.7 | 0.00 | 0.03 | 0.03 | 97 | 1014.3 |
| 20260904131714 | 64 | 92 | 0.0 | 0.9 | 0.00 | 0.03 | 0.03 | 97 | 1014.5 |
| 20260904130952 | 64 | 68 | 0.0 | 0.0 | 0.00 | 0.03 | 0.03 | 97 | 1014.5 |
| 20260904130451 | 64 | 63 | 0.0 | 2.6 | 0.00 | 0.03 | 0.03 | 97 | 1014.8 |
| 20260904125947 | 64 | 63 | 0.0 | 2.6 | 0.01 | 0.02 | 0.03 | 97 | 1014.6 |
| 20260904125447 | 64 | 66 | 1.7 | 2.6 | 0.01 | 0.02 | 0.03 | 97 | 1014.2 |
| 20260904124943 | 63 | 158 | 0.0 | 2.6 | 0.02 | 0.02 | 0.03 | 97 | 1014.1 |
| 20260904124446 | 63 | 178 | 0.9 | 2.6 | 0.03 | 0.02 | 0.03 | 97 | 1014.1 |
| 20260904123945 | 63 | 168 | 0.9 | 2.6 | 0.03 | 0.02 | 0.03 | 97 | 1014.1 |
| 20260904123443 | 63 | 178 | 0.0 | 1.7 | 0.03 | 0.02 | 0.03 | 97 | 1013.9 |
| 20260904122943 | 62 | 175 | 0.0 | 1.7 | 0.03 | 0.02 | 0.03 | 97 | 1014.0 |
| 20260904122442 | 62 | 210 | 0.9 | 1.7 | 0.03 | 0.02 | 0.03 | 97 | 1014.1 |
| 20260904122213 | 62 | 210 | 0.0 | 2.6 | 0.03 | 0.02 | 0.03 | 97 | 1014.1 |
| 20260904120942 | 61 | 188 | 1.7 | 3.5 | 0.03 | 0.02 | 0.03 | 96 | 1014.2 |
| 20260904120440 | 62 | 175 | 2.6 | 3.5 | 0.03 | 0.02 | 0.03 | 96 | 1014.4 |
| 20260904115942 | 62 | 212 | 0.0 | 2.6 | 0.02 | 0.00 | 0.02 | 96 | 1014.7 |
| 20260904115441 | 61 | 251 | 1.7 | 2.6 | 0.02 | 0.00 | 0.02 | 97 | 1014.8 |
| 20260904114941 | 61 | 264 | 1.7 | 3.5 | 0.01 | 0.00 | 0.00 | 97 | 1014.6 |
| 20260904114440 | 61 | 264 | 1.7 | 3.5 | 0.00 | 0.00 | 0.00 | 97 | 1014.7 |
| 20260904113940 | 61 | 285 | 1.7 | 3.5 | 0.00 | 0.00 | 0.00 | 97 | 1014.7 |
| 20260904113441 | 61 | 282 | 0.9 | 2.6 | 0.00 | 0.00 | 0.00 | 97 | 1014.6 |
| 20260904112941 | 60 | 310 | 0.9 | 1.7 | 0.00 | 0.00 | 0.00 | 97 | 1014.4 |
| 20260904112441 | 60 | 282 | 0.9 | 1.7 | 0.00 | 0.00 | 0.00 | 97 | 1014.2 |
| 20260904111941 | 60 | 303 | 0.0 | 1.7 | 0.00 | 0.00 | 0.00 | 97 | 1014.2 |